Location: Bergfeld
(52.0500°N, 11.7833°E)
Time: 00:31:16
(UTC+00:00)

BREEZE M DEB (TANK) - Pass Details

Date: 17 February 2020
Orbit: 314 x 13667 km, 49.6° (Epoch: 09 April)

Event Time Altitude Azimuth Distance (km) Brightness Sun altitude
Exits shadow 04:03:46 61° 166° (SSE) 588 2.9 -22.3°
Drops below altitude 10° 04:09:15 10° 96° (E) 2,993 7.6 -21.5°
Sets 04:14:08 0° 94° (E) 5,258 9.3 -20.7°
